sat.trackr.live / text

‹ back to catalog

STARLINK-1954

NORAD 47555 · 2021-009H

PAYLOAD ACTIVE UNKNOWN

§ Identity

Operator
Country
US
Launch date
2021-02-04
Launch site
AFETR
Launch vehicle
Mass (kg)
RCS (m²)

Purposes: comms

External: N2YO · Heavens-Above · Gunter

§ Orbital elements

Epoch: 2026-05-25T00:29:58.427232Z

Period
93.59 min
Inclination
53.0535°
Eccentricity
0.0003294
Mean motion
15.38568551 rev/d
Perigee alt
448.1 km
Apogee alt
452.6 km
Semi-major
6,828.5 km
B*
1.2358e-3
RAAN
12.1649°
Arg perigee
93.3411°
Mean anomaly
266.7969°
Rev number
29,268

§ Raw data

STARLINK-19541 47555U 21009H   26145.02081513  .00047671  00000+0  12358-2 0  99912 47555  53.0535  12.1649 0003294  93.3411 266.7969 15.38568551292680

JSON: /api/v1/satellites/47555 · /tle

For live sub-satellite position, see the globe view (requires WebGL).

§ Visibility from observer

Set your observer location to see the next 7 days of passes ≥ 10°. The values pass through the URL so the page stays shareable.

No JS? Fill the form by hand. The geolocation button needs JavaScript.